Location: *
(34.6780°N, 135.8310°E)
Time: 18:59:56
(UTC+00:00)

SL-8 Rocket - Pass Details

Date: 18 October 2019
Orbit: 957 x 991 km, 82.9° (Epoch: 12 November)

Event Time Altitude Azimuth Distance (km) Brightness Sun altitude
Rises 20:24:07 0° 185° (S) 3,653 7.0 -9.1°
Reaches altitude 10° 20:26:37 10° 186° (S) 2,704 6.3 -8.6°
Maximum altitude 20:32:50 86° 276° (W) 972 4.0 -7.4°
Drops below altitude 10° 20:39:01 10° 5° (N) 2,700 6.3 -6.1°
Sets 20:41:31 0° 6° (N) 3,647 7.0 -5.6°
